Location: Sangrey
(48.2845°N, 109.8206°W)
Time: 23:24:09
(UTC+00:00)

Envisat - Pass Details

Date: 28 January 2022
Orbit: 764 x 765 km, 98.2° (Epoch: 22 May)

Event Time Altitude Azimuth Distance (km) Brightness Sun altitude
Rises 13:02:21 0° 8° (N) 3,243 6.3 -18.3°
Reaches altitude 10° 13:04:45 10° 2° (N) 2,312 5.4 -17.9°
Maximum altitude 13:09:32 43° 292° (WNW) 1,071 3.3 -17.1°
Drops below altitude 10° 13:14:18 10° 222° (SW) 2,298 5.2 -16.4°
Sets 13:16:40 0° 216° (SW) 3,221 6.0 -16.0°
